www.pogodaiklimat.ru

Погода и климат >> Архив погоды >> Португалия >> Санта-Мария


ПОГОДА в Санта-Марии

  • Прогноз погоды в Санта-Марии
  • Монитор погоды в Санта-Марии

АРХИВ ПОГОДЫ в Санта-Марии

Время (UTC), дата Ветер
(напр.,м/с)
 
Видим.   Явления Облачность Т
(С)
Тd
(С)
f
(%)
Тe
(С)
Тes
(С)
Комфортность P
(гПа)
Po
(гПа)
Тmin
(С)
Tmax
(С)
R
(мм)
R24
(мм)
S
(см)
06 17.02 С 7-11
{11}
25 км 9/5 900 м
[Cu Sc Ac trans Ci fib]
+13.3 +11 +11 1027.0 1015.9 +12.9
09 17.02 С 7 30 км 5/5 900 м
[Cu Sc]
+13.1 +5.5 60 +11 +11 1028.7 1017.7
12 17.02 С 7 60 км 1/1 1020 м
[Cu Sc]
+15.6 +5.5 51 +14 +16 1030.2 1019.2
15 17.02 нст 6
{9}
60 км 4/4 1080 м
[Cu Sc]
+16.1 +6.8 54 +15 +17 1029.4 1018.4
18 17.02 С 5 н/о н/о +14.7 +4.9 52 +13 +13 1029.9 1018.9 +17.1
21 17.02
{6}
50 км н/о +12.2 +5.3 63 1031.0 1019.9
00 18.02
{5}
30 км н/о +11.5 +4.3 61 1031.2 1020.1
03 18.02 Ю 2 30 км 6/6 1080 м
[Cu Sc]
+10.9 +4.4 64 +10 +10 1030.8 1019.7
06 18.02 ЮВ 2 60 км 4/4 1260 м
[Sc]
+11.0 +4.8 66 +10 +10 1029.2 1018.1 +9.8
09 18.02 ЮЗ 3
{5}
60 км 4/4 1200 м
[Sc Ci fib]
+12.6 +5.0 60 +11 +12 1029.5 1018.4
12 18.02 нст 5-7
{8}
50 км 6/6 1200 м
[Cb calv]
+14.5 +6.3 58 +13 +15 1028.8 1017.8
15 18.02 нст 7 50 км 8/6 1140 м
[Cb calv Ci fib]
+15.4 +7.5 59 +14 +15 1026.3 1015.4
18 18.02 30 км н/о +14.9 +8.2 64 1025.0 1014.0 +17.0
21 18.02 30 км н/о +14.7 +8.7 67 1024.9 1014.0
00 19.02 Ю 9 30 км 8/8 840 м
[Cu Sc Ac trans Ci fib]
+14.9 +9.7 71 +13 +13 1023.3 1012.3
03 19.02 нст 10
{15}
30 км 9/8 800 м
[Cu Sc Ac trans Ci fib]
+15.6 +10.6 72 +13 +13 1020.9 1010.1
06 19.02 нст 11 30 км 9/6 600 м
[Cu Sc Ac trans Ci fib]
+15.7 +12.2 80 +13 +13 1018.4 1007.6 +14.4
09 19.02 нст 13 10 км 9/6 420 м
[Cu Sc Ac trans]
+16.2 +16.2 100 +14 +14 1017.3 1006.5
12 19.02 20 км н/о +17.0 1017.1 1006.3
15 19.02 20 км н/о +17.0 1014.3 1003.5
18 19.02 СЗ 14 н/о н/о +16.9 +15 +15 1012.8 1002.0 +17.7
21 19.02 ЮЗ 12 12 км дымка 9/9 120 м
[Cu Sc]
+16.8 +15 +15 1012.3 1001.6
00 20.02 Ю 12 12 км 9/9 180 м
[Cu Sc Ac trans]
+16.8 +15 +15 1011.0 1000.3
03 20.02 Ю 14 12 км 9/9 210 м
[Cu Sc]
+16.8 -28.8 3 +15 +15 1007.9 997.2
06 20.02
{23}
12 км н/о +17.0 -28.6 3 1005.0 994.3 +16.5
09 20.02 Ю 16 8000 м слаб. ливневой дождь 10/9 210 м
[Cu Sc Ac trans]
+17.0 +15 +15 1003.8 993.1
12 20.02 Ю 19 3000 м слаб. ливневой дождь 10/10 30 м
[Cu Sc]
+16.7 +14 +14 1002.9 992.2 0.1
15 20.02 Ю 18 5000 м в посл. час ливневой дождь 10/10 120 м
[Cu Sc]
+16.5 +14 +14 1000.2 989.5
18 20.02 С 4
{9}
н/о {ливн. осадки, дождь} н/о +12.6 -31.6 3 +12 +12 1000.5 989.7 +17.4 11
21 20.02 З 1 10 км слаб. дождь 9/6 180 м
[Cu Sc Ac trans]
+12.9 +14 +14 1000.8 990.0
00 21.02 С 4
{6}
н/о {дождь} н/о +12.2 +11 +11 1000.6 989.9 18
03 21.02 С 8-12
{16}
н/о {дождь, морось} н/о +12.3 +10 +10 997.2 986.5 2
06 21.02 С 14 н/о {ливн. осадки} н/о +15.2 -29.8 3 +13 +13 996.6 986.0 +10.9 27
09 21.02 ЮЗ 10-15
{18}
20 км 9/5 660 м
[Cu Sc Ac trans]
+13.7 +11 +11 999.8 989.0
12 21.02 ЮЗ 10
{16}
20 км {ливн. осадки} 9/5 660 м
[Cu Sc Cs]
+15.6 +14 +14 1001.4 990.8 0.5
15 21.02 ЮЗ 12 20 км 9/5 750 м
[Cu Sc Ac lent Cs]
+16.5 +13.2 81 +14 +14 1001.3 990.7
18 21.02 ЮЗ 11
{17}
20 км {ливн. осадки} 9/5 540 м
[Cu Sc Ac As Ci sp]
+15.6 +14 +14 1001.4 990.7 +16.8 0.6
21 21.02 Ю 12
{23}
20 км {ливн. осадки} 9/5 300 м
[Cu Sc Ac trans Ci sp]
+15.4 +13 +13 1001.4 990.8
00 22.02 Ю 15 20 км {ливн. осадки} 9/3 700 м
[Cu med, cong Ac As]
+16.4 +16.4 100 +14 +14 1000.5 989.9 0.1
03 22.02 ЮЗ 12-19
{26}
н/о {гроза, ливн. осадки} н/о +13.5 +11 +11 999.1 988.4
06 22.02 С 9-14
{16}
н/о {ливн. осадки, гроза} н/о +12.7 +10 +10 1000.0 989.3 +11.7 6
09 22.02 З 17-27
{33}
н/о {ливн. осадки} н/о +9.3 +9.3 100 +5 +5 1005.5 994.6
12 22.02 З 14 25 км {ливн. осадки} 4/4 900 м
[Cu Sc Ci sp]
+13.9 +5.2 56 +11 +11 1009.1 998.3 2
15 22.02 ЮЗ 10
{15}
25 км 5/5 720 м
[Cu med, cong]
+13.5 +7.6 67 +11 +11 1011.8 1001.0
18 22.02 С 10
{17}
н/о н/о +14.8 +6.7 58 +12 +12 1013.3 1002.5 +15.4 2
21 22.02 С 8 н/о н/о +14.1 +9.0 71 +12 +12 1015.6 1004.7 0.1
00 23.02 С 12 20 км в посл. час ливневой дождь 5/5 660 м
[Cu Sc Ac lent]
+14.1 +9.5 74 +11 +11 1016.0 1005.1
03 23.02 Ю 12
{18}
н/о н/о +14.5 +10.0 74 +12 +12 1014.5 1003.7
06 23.02 С 13 н/о {ливн. осадки} н/о +14.9 +12.9 88 +12 +12 1012.4 1001.6 +13.1 0.1
09 23.02 Ю 17 н/о {ливн. осадки} н/о +15.5 +13 +13 1009.9 999.1
12 23.02 Ю 16 7000 м слаб. дождь 10/8 300 м
[Cu med, cong Ac As]
+15.5 +13 +13 1009.9 999.2 0.3
15 23.02 С 19 н/о {дождь} н/о +15.1 -29.9 3 +12 +12 1007.7 996.9 0.6
18 23.02 С 13
{20}
н/о {дождь} н/о +16.5 +15 +15 1008.0 997.3 +16.5 7
21 23.02 СЗ 7
{11}
н/о н/о +15.0 -30.0 3 +14 +14 1010.7 999.9
00 24.02 С 7
{12}
н/о н/о +15.0 +14 +14 1012.9 1002.1 0.6

 

Местоположение метеостанции Санта-Мария (Португалия): широта 36.97 долгота -25.16 высота над уровнем моря 100 м.

В архиве по умолчанию представлена погода в Санта-Марии за последнюю неделю. Архивные данные за месяц целиком и за предыдущие месяцы, начиная с января 2011 года, Вы можете получить, выбрав интересующий диапазон дат из раскрывающегося списка и нажав кнопку "Ввод!".


*Определитесь, кто Вы:
робот инопланетянин человек

Внимание! Время в таблицах - всемирное. Для получения местного времени необходимо прибавить поправку, которая равна 0 ч.

Смотрите также архив погоды в соседних городах и на ближайших метеорологических станциях:

Погода в Понта-Делгаде (Португалия) (97 км)
Погода в Ангра-ду-Эроижму (Португалия) (261 км)
Погода в Аэропорту Лажеша (Португалия) (263 км)
Погода на Острове Грасьоса (Португалия) (344 км)
Погода в Орте (Португалия) (350 км)
Погода в Каштелу-Бранку (Португалия) (357 км)
Погода на Флошише (Португалия) (590 км)
Погода в Финшале (Португалия) (895 км)
Погода в Санта-Катарине (Португалия) (903 км)
Погода на Порту-Санту (Португалия) (912 км)

Пояснения к столбцам:

Ветер - указаны скорость ветра в м/с - средняя за 10 мин, порывы в срок и между сроками (в фигурных скобках) и направление, откуда дует ветер: С - северный, СВ - северо-восточный, В - восточный, ЮВ - юго-восточный, Ю - южный, ЮЗ - юго-западный, З - западный, СЗ - северо-западный.
Видимость - горизонтальная дальность видимости в метрах или километрах. При видимости от 1 до 10 км при отсутствии осадков обычно наблюдается дымка, при ухудшении видимости до 1 км и менее - туман. В сухую погоду видимость может ухудшаться дымом, пылью или мглою.
Явления - указаны атмосферные явления, наблюдавшиеся в срок или в последний час перед сроком; фигурными скобками обозначены явления, наблюдавшиеся между сроками (за 1-3 часа до срока); квадратными скобками обозначены град или гололедные отложения с указанием их диаметра в мм.
Облачность - указаны через наклонную черту общая и нижняя облачность в баллах и высота нижней границы облаков в метрах; квадратными скобками обозначены формы облаков: Ci - перистые, Cs - перисто-слоистые, Cc - перисто-кучевые, Ac - высококучевые, As - высокослоистые, Sc - слоисто-кучевые, Ns - слоисто-дождевые, Cu - кучевые, Cb - кучево-дождевые. Подробнее классификацию облаков см. в Атласе облаков (PDF).
T - Температура воздуха - температура, измеренная на высоте 2 м над землей.
Td - Температура точки росы - температура, при понижении до которой содержащийся в воздухе водяной пар достигнет насыщения.
f - Относительная влажность воздуха - влажноcть воздуха, измеренная на высоте 2 м над землей.
Te - Эффективная температура - температура, которую ощущает одетый по сезону человек в тени. Характеристика душности погоды. При расчете учитывается влияние влажности воздуха и скорости ветра на теплоощущения человека.
Tes - Эффективная температура на солнце - температура, которую ощущает человек, с поправкой на солнечный нагрев. Характеристика знойности погоды. Зависит от высоты солнца над горизонтом, облачности и скорости ветра. Ночью, в пасмурную погоду, а также при ветре 12 м/с и более поправка равна нулю.
P - Атмосферное давление - приведенное к уровню моря атмосферное давление.
Po - Атмосферное давление - измеренное на уровне метеостанции атмосферное давление.
Tmin - Минимальная температура - минимум температуры воздуха на высоте 2 м над землей.
Tmax - Максимальная температура - максимум температуры воздуха на высоте 2 м над землей.
R - Количество осадков - Количество выпавших осадков за период времени, мм. При наведении курсора мыши на число - период времени, за который выпало указанное количество осадков.
R24 - Количество осадков - Количество выпавших осадков за 24 часа, мм.
S - Снежный покров - Высота снежного покрова, см. При наведении курсора мыши на число - состояние снежного покрова и степень покрытия местности в баллах.